This is the latest recevied weather packets stored in our database for station/object KC9NPJ-13. If no packets are shown the sender has not sent any weather packets the latest 10 day(s).
| Time | Temp. | Humidity | Pressure | Rain* | Wind** | Luminosity | Snow |
|---|---|---|---|---|---|---|---|
| 1777624460 | 10.56° C | 88% | 1015.8 hPa | 0 mm | - | - | - |
| 1777624160 | 11.11° C | 89% | 1015.7 hPa | 0 mm | - | - | - |
| 1777623860 | 11.11° C | 87% | 1015.7 hPa | 0 mm | - | - | - |
| 1777623560 | 11.11° C | 87% | 1015.6 hPa | 0 mm | - | - | - |
| 1777623260 | 11.67° C | 85% | 1015.5 hPa | 0 mm | - | - | - |
| 1777622960 | 11.67° C | 84% | 1015.5 hPa | 0 mm | - | - | - |
| 1777622660 | 11.67° C | 81% | 1015.4 hPa | 0 mm | - | - | - |
| 1777622360 | 11.67° C | 80% | 1015.5 hPa | 0 mm | - | - | - |
| 1777622060 | 12.22° C | 79% | 1015.5 hPa | 0 mm | - | - | - |
| 1777621760 | 11.67° C | 79% | 1015.5 hPa | 0 mm | - | - | - |
| 1777621460 | 11.67° C | 79% | 1015.4 hPa | 0 mm | - | - | - |
| 1777621160 | 11.67° C | 78% | 1015.4 hPa | 0 mm | - | - | - |
| 1777620860 | 11.67° C | 77% | 1015.5 hPa | 0 mm | - | - | - |
| 1777620560 | 11.11° C | 78% | 1015.4 hPa | 0 mm | - | - | - |
| 1777620260 | 11.11° C | 78% | 1015.3 hPa | 0 mm | - | - | - |
| 1777619960 | 11.11° C | 79% | 1015.3 hPa | 0 mm | - | - | - |
| 1777619660 | 11.11° C | 78% | 1015.5 hPa | 0 mm | - | - | - |
| 1777619360 | 11.11° C | 78% | 1015.5 hPa | 0 mm | - | - | - |
| 1777619060 | 11.67° C | 77% | 1015.5 hPa | 0 mm | - | - | - |
| 1777618760 | 11.67° C | 77% | 1015.5 hPa | 0 mm | - | - | - |
| 1777618460 | 11.67° C | 76% | 1015.6 hPa | 0 mm | - | - | - |
| 1777618160 | 11.67° C | 77% | 1015.7 hPa | 0 mm | - | - | - |
| 1777617860 | 11.67° C | 78% | 1015.9 hPa | 0 mm | - | - | - |
| 1777617560 | 11.67° C | 78% | 1016 hPa | 0 mm | - | - | - |
| 1777617260 | 11.67° C | 77% | 1015.9 hPa | 0 mm | - | - | - |
* Rain latest hour (hover to see other rain measurements)
** Current wind speed in m/s (hover to see current wind gust speed)